Time,TemperatureF,DewpointF,PressureIn,WindDirection,WindDirectionDegrees,WindSpeedMPH,WindSpeedGustMPH,Humidity,HourlyPrecipIn,Conditions,Clouds,dailyrainin,SoftwareType,DateUTC
2013-11-24 00:01:00,43.3,20.1,29.84,North,-999,-999.0,-999.0,39,-99.99,,,-99.99,meteohub,2013-11-24 05:01:00,
2013-11-24 00:02:00,43.3,20.1,29.84,North,-999,-999.0,-999.0,39,-99.99,,,-99.99,meteohub,2013-11-24 05:02:00,
2013-11-24 00:04:00,43.3,20.1,29.84,North,-999,-999.0,-999.0,39,-99.99,,,-99.99,meteohub,2013-11-24 05:04:00,
2013-11-24 00:05:00,43.3,20.1,29.84,North,-999,-999.0,-999.0,39,-99.99,,,-99.99,meteohub,2013-11-24 05:05:00,
2013-11-24 00:10:00,43.2,19.9,29.84,North,-999,-999.0,-999.0,39,-99.99,,,-99.99,meteohub,2013-11-24 05:10:00,
2013-11-24 00:15:00,43.2,19.9,29.84,North,-999,-999.0,-999.0,39,-99.99,,,-99.99,meteohub,2013-11-24 05:15:00,
2013-11-24 00:20:00,43.0,19.8,29.84,North,-999,-999.0,-999.0,39,-99.99,,,-99.99,meteohub,2013-11-24 05:20:00,
2013-11-24 00:25:00,42.8,19.6,29.84,North,-999,-999.0,-999.0,39,-99.99,,,-99.99,meteohub,2013-11-24 05:25:00,
2013-11-24 00:30:00,42.8,19.6,29.84,North,-999,-999.0,-999.0,39,-99.99,,,-99.99,meteohub,2013-11-24 05:30:00,
2013-11-24 00:35:00,42.6,20.1,29.84,North,-999,-999.0,-999.0,40,-99.99,,,-99.99,meteohub,2013-11-24 05:35:00,
2013-11-24 00:40:00,42.4,19.9,29.84,North,-999,-999.0,-999.0,40,-99.99,,,-99.99,meteohub,2013-11-24 05:40:00,
2013-11-24 00:46:00,42.3,19.8,29.84,North,-999,-999.0,-999.0,40,-99.99,,,-99.99,meteohub,2013-11-24 05:46:00,
2013-11-24 00:51:00,42.1,19.6,29.87,North,-999,-999.0,-999.0,40,-99.99,,,-99.99,meteohub,2013-11-24 05:51:00,
2013-11-24 00:56:00,42.1,19.6,29.87,North,-999,-999.0,-999.0,40,-99.99,,,-99.99,meteohub,2013-11-24 05:56:00,
2013-11-24 01:00:00,42.1,19.6,29.87,North,-999,-999.0,-999.0,40,-99.99,,,-99.99,meteohub,2013-11-24 06:00:00,
2013-11-24 01:05:00,42.1,19.6,29.87,North,-999,-999.0,-999.0,40,-99.99,,,-99.99,meteohub,2013-11-24 06:05:00,
2013-11-24 01:10:00,42.1,19.6,29.87,North,-999,-999.0,-999.0,40,-99.99,,,-99.99,meteohub,2013-11-24 06:10:00,
2013-11-24 01:15:00,41.9,19.4,29.87,North,-999,-999.0,-999.0,40,-99.99,,,-99.99,meteohub,2013-11-24 06:15:00,
2013-11-24 01:20:00,41.7,19.2,29.87,North,-999,-999.0,-999.0,40,-99.99,,,-99.99,meteohub,2013-11-24 06:20:00,
2013-11-24 01:26:00,41.7,19.2,29.87,North,-999,-999.0,-999.0,40,-99.99,,,-99.99,meteohub,2013-11-24 06:26:00,
2013-11-24 01:31:00,41.5,18.5,29.87,North,-999,-999.0,-999.0,39,-99.99,,,-99.99,meteohub,2013-11-24 06:31:00,
2013-11-24 01:36:00,41.5,18.5,29.87,North,-999,-999.0,-999.0,39,-99.99,,,-99.99,meteohub,2013-11-24 06:36:00,
2013-11-24 01:41:00,41.4,17.8,29.87,North,-999,-999.0,-999.0,38,-99.99,,,-99.99,meteohub,2013-11-24 06:41:00,
2013-11-24 01:46:00,41.2,17.6,29.87,North,-999,-999.0,-999.0,38,-99.99,,,-99.99,meteohub,2013-11-24 06:46:00,
2013-11-24 01:51:00,41.0,17.4,29.87,North,-999,-999.0,-999.0,38,-99.99,,,-99.99,meteohub,2013-11-24 06:51:00,
2013-11-24 01:56:00,40.8,17.2,29.87,North,-999,-999.0,-999.0,38,-99.99,,,-99.99,meteohub,2013-11-24 06:56:00,
2013-11-24 02:01:00,40.6,17.6,29.87,North,-999,-999.0,-999.0,39,-99.99,,,-99.99,meteohub,2013-11-24 07:01:00,
2013-11-24 02:06:00,40.5,17.6,29.90,North,-999,-999.0,-999.0,39,-99.99,,,-99.99,meteohub,2013-11-24 07:06:00,
2013-11-24 02:11:00,40.3,16.7,29.90,North,-999,-999.0,-999.0,38,-99.99,,,-99.99,meteohub,2013-11-24 07:11:00,
2013-11-24 02:17:00,40.1,17.2,29.90,North,-999,-999.0,-999.0,39,-99.99,,,-99.99,meteohub,2013-11-24 07:17:00,
2013-11-24 02:22:00,39.7,16.9,29.87,North,-999,-999.0,-999.0,39,-99.99,,,-99.99,meteohub,2013-11-24 07:22:00,
2013-11-24 02:27:00,39.6,16.7,29.87,North,-999,-999.0,-999.0,39,-99.99,,,-99.99,meteohub,2013-11-24 07:27:00,
2013-11-24 02:32:00,39.4,16.5,29.87,North,-999,-999.0,-999.0,39,-99.99,,,-99.99,meteohub,2013-11-24 07:32:00,
2013-11-24 02:37:00,39.2,16.3,29.87,North,-999,-999.0,-999.0,39,-99.99,,,-99.99,meteohub,2013-11-24 07:37:00,
2013-11-24 02:42:00,38.8,16.0,29.87,North,-999,-999.0,-999.0,39,-99.99,,,-99.99,meteohub,2013-11-24 07:42:00,
2013-11-24 02:47:00,38.7,16.0,29.87,North,-999,-999.0,-999.0,39,-99.99,,,-99.99,meteohub,2013-11-24 07:47:00,
2013-11-24 02:52:00,38.3,14.9,29.90,North,-999,-999.0,-999.0,38,-99.99,,,-99.99,meteohub,2013-11-24 07:52:00,
2013-11-24 02:57:00,38.1,14.2,29.90,North,-999,-999.0,-999.0,37,-99.99,,,-99.99,meteohub,2013-11-24 07:57:00,
2013-11-24 03:02:00,37.9,14.7,29.90,North,-999,-999.0,-999.0,38,-99.99,,,-99.99,meteohub,2013-11-24 08:02:00,
2013-11-24 03:07:00,37.8,14.5,29.90,North,-999,-999.0,-999.0,38,-99.99,,,-99.99,meteohub,2013-11-24 08:07:00,
2013-11-24 03:12:00,37.6,13.8,29.90,North,-999,-999.0,-999.0,37,-99.99,,,-99.99,meteohub,2013-11-24 08:12:00,
2013-11-24 03:17:00,37.4,14.2,29.90,North,-999,-999.0,-999.0,38,-99.99,,,-99.99,meteohub,2013-11-24 08:17:00,
2013-11-24 03:22:00,37.2,14.0,29.90,North,-999,-999.0,-999.0,38,-99.99,,,-99.99,meteohub,2013-11-24 08:22:00,
2013-11-24 03:27:00,37.0,13.8,29.90,North,-999,-999.0,-999.0,38,-99.99,,,-99.99,meteohub,2013-11-24 08:27:00,
2013-11-24 03:32:00,36.9,13.6,29.90,North,-999,-999.0,-999.0,38,-99.99,,,-99.99,meteohub,2013-11-24 08:32:00,
2013-11-24 03:37:00,36.9,13.6,29.90,North,-999,-999.0,-999.0,38,-99.99,,,-99.99,meteohub,2013-11-24 08:37:00,
2013-11-24 03:42:00,36.7,13.5,29.90,North,-999,-999.0,-999.0,38,-99.99,,,-99.99,meteohub,2013-11-24 08:42:00,
2013-11-24 03:47:00,36.5,13.5,29.90,North,-999,-999.0,-999.0,38,-99.99,,,-99.99,meteohub,2013-11-24 08:47:00,
2013-11-24 03:52:00,36.3,13.3,29.90,North,-999,-999.0,-999.0,38,-99.99,,,-99.99,meteohub,2013-11-24 08:52:00,
2013-11-24 03:57:00,36.3,13.3,29.90,North,-999,-999.0,-999.0,38,-99.99,,,-99.99,meteohub,2013-11-24 08:57:00,
2013-11-24 04:02:00,36.1,13.1,29.90,North,-999,-999.0,-999.0,38,-99.99,,,-99.99,meteohub,2013-11-24 09:02:00,
2013-11-24 04:07:00,36.0,12.9,29.93,North,-999,-999.0,-999.0,38,-99.99,,,-99.99,meteohub,2013-11-24 09:07:00,
2013-11-24 04:12:00,35.8,13.3,29.93,North,-999,-999.0,-999.0,39,-99.99,,,-99.99,meteohub,2013-11-24 09:12:00,
2013-11-24 04:17:00,35.6,13.1,29.93,North,-999,-999.0,-999.0,39,-99.99,,,-99.99,meteohub,2013-11-24 09:17:00,
2013-11-24 04:22:00,35.4,12.9,29.93,North,-999,-999.0,-999.0,39,-99.99,,,-99.99,meteohub,2013-11-24 09:22:00,
2013-11-24 04:27:00,35.4,12.9,29.93,North,-999,-999.0,-999.0,39,-99.99,,,-99.99,meteohub,2013-11-24 09:27:00,
2013-11-24 04:32:00,35.2,12.7,29.93,North,-999,-999.0,-999.0,39,-99.99,,,-99.99,meteohub,2013-11-24 09:32:00,
2013-11-24 04:37:00,35.1,12.7,29.93,North,-999,-999.0,-999.0,39,-99.99,,,-99.99,meteohub,2013-11-24 09:37:00,
2013-11-24 04:42:00,35.1,13.3,29.93,North,-999,-999.0,-999.0,40,-99.99,,,-99.99,meteohub,2013-11-24 09:42:00,
2013-11-24 04:47:00,34.9,13.1,29.93,North,-999,-999.0,-999.0,40,-99.99,,,-99.99,meteohub,2013-11-24 09:47:00,
2013-11-24 04:52:00,34.7,12.4,29.93,North,-999,-999.0,-999.0,39,-99.99,,,-99.99,meteohub,2013-11-24 09:52:00,
2013-11-24 04:57:00,34.5,12.2,29.93,North,-999,-999.0,-999.0,39,-99.99,,,-99.99,meteohub,2013-11-24 09:57:00,
2013-11-24 05:02:00,34.5,12.7,29.93,North,-999,-999.0,-999.0,40,-99.99,,,-99.99,meteohub,2013-11-24 10:02:00,
2013-11-24 05:07:00,34.3,12.0,29.96,North,-999,-999.0,-999.0,39,-99.99,,,-99.99,meteohub,2013-11-24 10:07:00,
2013-11-24 05:12:00,34.2,11.8,29.96,North,-999,-999.0,-999.0,39,-99.99,,,-99.99,meteohub,2013-11-24 10:12:00,
2013-11-24 05:17:00,34.0,11.1,29.96,North,-999,-999.0,-999.0,38,-99.99,,,-99.99,meteohub,2013-11-24 10:17:00,
2013-11-24 05:22:00,34.0,11.7,29.96,North,-999,-999.0,-999.0,39,-99.99,,,-99.99,meteohub,2013-11-24 10:22:00,
2013-11-24 05:27:00,33.8,10.9,29.96,North,-999,-999.0,-999.0,38,-99.99,,,-99.99,meteohub,2013-11-24 10:27:00,
2013-11-24 05:32:00,33.6,10.8,29.96,North,-999,-999.0,-999.0,38,-99.99,,,-99.99,meteohub,2013-11-24 10:32:00,
2013-11-24 05:37:00,33.4,10.6,29.96,North,-999,-999.0,-999.0,38,-99.99,,,-99.99,meteohub,2013-11-24 10:37:00,
2013-11-24 05:42:00,33.3,10.4,29.96,North,-999,-999.0,-999.0,38,-99.99,,,-99.99,meteohub,2013-11-24 10:42:00,
2013-11-24 05:47:00,33.1,10.2,29.96,North,-999,-999.0,-999.0,38,-99.99,,,-99.99,meteohub,2013-11-24 10:47:00,
2013-11-24 05:52:00,33.1,10.2,29.99,North,-999,-999.0,-999.0,38,-99.99,,,-99.99,meteohub,2013-11-24 10:52:00,
2013-11-24 05:57:00,32.9,10.2,29.99,North,-999,-999.0,-999.0,38,-99.99,,,-99.99,meteohub,2013-11-24 10:57:00,
2013-11-24 06:02:00,32.7,10.0,29.99,North,-999,-999.0,-999.0,38,-99.99,,,-99.99,meteohub,2013-11-24 11:02:00,
2013-11-24 06:07:00,32.5,9.1,29.99,North,-999,-999.0,-999.0,37,-99.99,,,-99.99,meteohub,2013-11-24 11:07:00,
2013-11-24 06:12:00,32.5,9.1,29.99,North,-999,-999.0,-999.0,37,-99.99,,,-99.99,meteohub,2013-11-24 11:12:00,
2013-11-24 06:17:00,32.4,9.1,29.99,North,-999,-999.0,-999.0,37,-99.99,,,-99.99,meteohub,2013-11-24 11:17:00,
2013-11-24 06:22:00,32.2,9.0,29.99,North,-999,-999.0,-999.0,37,-99.99,,,-99.99,meteohub,2013-11-24 11:22:00,
2013-11-24 06:27:00,32.2,9.5,29.99,North,-999,-999.0,-999.0,38,-99.99,,,-99.99,meteohub,2013-11-24 11:27:00,
2013-11-24 06:32:00,32.0,8.8,29.99,North,-999,-999.0,-999.0,37,-99.99,,,-99.99,meteohub,2013-11-24 11:32:00,
2013-11-24 06:37:00,31.8,8.6,29.99,North,-999,-999.0,-999.0,37,-99.99,,,-99.99,meteohub,2013-11-24 11:37:00,
2013-11-24 06:42:00,31.8,8.6,29.99,North,-999,-999.0,-999.0,37,-99.99,,,-99.99,meteohub,2013-11-24 11:42:00,
2013-11-24 06:47:00,31.6,8.4,29.99,North,-999,-999.0,-999.0,37,-99.99,,,-99.99,meteohub,2013-11-24 11:47:00,
2013-11-24 06:52:00,31.5,8.2,29.99,North,-999,-999.0,-999.0,37,-99.99,,,-99.99,meteohub,2013-11-24 11:52:00,
2013-11-24 06:57:00,31.5,8.2,29.99,North,-999,-999.0,-999.0,37,-99.99,,,-99.99,meteohub,2013-11-24 11:57:00,
2013-11-24 07:02:00,31.3,8.1,29.99,North,-999,-999.0,-999.0,37,-99.99,,,-99.99,meteohub,2013-11-24 12:02:00,
2013-11-24 07:07:00,31.3,8.1,29.99,North,-999,-999.0,-999.0,37,-99.99,,,-99.99,meteohub,2013-11-24 12:07:00,
2013-11-24 07:12:00,31.3,8.6,29.99,North,-999,-999.0,-999.0,38,-99.99,,,-99.99,meteohub,2013-11-24 12:12:00,
2013-11-24 07:17:00,31.1,8.4,29.99,North,-999,-999.0,-999.0,38,-99.99,,,-99.99,meteohub,2013-11-24 12:17:00,
2013-11-24 07:22:00,31.1,8.4,30.01,North,-999,-999.0,-999.0,38,-99.99,,,-99.99,meteohub,2013-11-24 12:22:00,
2013-11-24 07:27:00,31.1,7.9,30.01,North,-999,-999.0,-999.0,37,-99.99,,,-99.99,meteohub,2013-11-24 12:27:00,
2013-11-24 07:32:00,31.1,7.3,30.01,North,-999,-999.0,-999.0,36,-99.99,,,-99.99,meteohub,2013-11-24 12:32:00,
2013-11-24 07:37:00,31.1,7.9,30.04,North,-999,-999.0,-999.0,37,-99.99,,,-99.99,meteohub,2013-11-24 12:37:00,
2013-11-24 07:42:00,31.1,7.3,30.04,North,-999,-999.0,-999.0,36,-99.99,,,-99.99,meteohub,2013-11-24 12:42:00,
2013-11-24 07:47:00,31.1,7.3,30.04,North,-999,-999.0,-999.0,36,-99.99,,,-99.99,meteohub,2013-11-24 12:47:00,
2013-11-24 07:52:00,31.3,7.5,30.04,North,-999,-999.0,-999.0,36,-99.99,,,-99.99,meteohub,2013-11-24 12:52:00,
2013-11-24 07:57:00,31.3,8.1,30.04,North,-999,-999.0,-999.0,37,-99.99,,,-99.99,meteohub,2013-11-24 12:57:00,
2013-11-24 08:02:00,31.5,7.7,30.04,North,-999,-999.0,-999.0,36,-99.99,,,-99.99,meteohub,2013-11-24 13:02:00,
2013-11-24 08:07:00,31.5,7.7,30.07,North,-999,-999.0,-999.0,36,-99.99,,,-99.99,meteohub,2013-11-24 13:07:00,
2013-11-24 08:12:00,31.5,7.7,30.07,North,-999,-999.0,-999.0,36,-99.99,,,-99.99,meteohub,2013-11-24 13:12:00,
2013-11-24 08:17:00,31.6,7.7,30.07,North,-999,-999.0,-999.0,36,-99.99,,,-99.99,meteohub,2013-11-24 13:17:00,
2013-11-24 08:22:00,31.6,7.2,30.07,North,-999,-999.0,-999.0,35,-99.99,,,-99.99,meteohub,2013-11-24 13:22:00,
2013-11-24 08:27:00,31.6,6.4,30.07,North,-999,-999.0,-999.0,34,-99.99,,,-99.99,meteohub,2013-11-24 13:27:00,
2013-11-24 08:32:00,31.8,7.3,30.07,North,-999,-999.0,-999.0,35,-99.99,,,-99.99,meteohub,2013-11-24 13:32:00,
2013-11-24 08:37:00,32.0,7.5,30.07,North,-999,-999.0,-999.0,35,-99.99,,,-99.99,meteohub,2013-11-24 13:37:00,
2013-11-24 08:42:00,32.2,7.7,30.07,North,-999,-999.0,-999.0,35,-99.99,,,-99.99,meteohub,2013-11-24 13:42:00,
2013-11-24 08:47:00,32.4,7.9,30.07,North,-999,-999.0,-999.0,35,-99.99,,,-99.99,meteohub,2013-11-24 13:47:00,
2013-11-24 08:52:00,32.4,7.2,30.10,North,-999,-999.0,-999.0,34,-99.99,,,-99.99,meteohub,2013-11-24 13:52:00,
2013-11-24 08:57:00,32.4,7.2,30.10,North,-999,-999.0,-999.0,34,-99.99,,,-99.99,meteohub,2013-11-24 13:57:00,
2013-11-24 09:02:00,32.4,6.6,30.10,North,-999,-999.0,-999.0,33,-99.99,,,-99.99,meteohub,2013-11-24 14:02:00,
2013-11-24 09:07:00,32.4,6.6,30.10,North,-999,-999.0,-999.0,33,-99.99,,,-99.99,meteohub,2013-11-24 14:07:00,
2013-11-24 09:12:00,32.4,6.6,30.10,North,-999,-999.0,-999.0,33,-99.99,,,-99.99,meteohub,2013-11-24 14:12:00,
2013-11-24 09:17:00,32.5,6.6,30.10,North,-999,-999.0,-999.0,33,-99.99,,,-99.99,meteohub,2013-11-24 14:17:00,
2013-11-24 09:22:00,32.7,7.5,30.10,North,-999,-999.0,-999.0,34,-99.99,,,-99.99,meteohub,2013-11-24 14:22:00,
2013-11-24 09:27:00,32.7,6.8,30.10,North,-999,-999.0,-999.0,33,-99.99,,,-99.99,meteohub,2013-11-24 14:27:00,
2013-11-24 09:32:00,32.9,7.7,30.10,North,-999,-999.0,-999.0,34,-99.99,,,-99.99,meteohub,2013-11-24 14:32:00,
2013-11-24 09:37:00,33.1,7.9,30.10,North,-999,-999.0,-999.0,34,-99.99,,,-99.99,meteohub,2013-11-24 14:37:00,
2013-11-24 09:42:00,33.3,7.3,30.10,North,-999,-999.0,-999.0,33,-99.99,,,-99.99,meteohub,2013-11-24 14:42:00,
2013-11-24 09:47:00,33.4,7.5,30.10,North,-999,-999.0,-999.0,33,-99.99,,,-99.99,meteohub,2013-11-24 14:47:00,
2013-11-24 09:52:00,33.8,7.9,30.10,North,-999,-999.0,-999.0,33,-99.99,,,-99.99,meteohub,2013-11-24 14:52:00,
2013-11-24 09:57:00,34.3,8.2,30.10,North,-999,-999.0,-999.0,33,-99.99,,,-99.99,meteohub,2013-11-24 14:57:00,
2013-11-24 10:02:00,34.2,7.5,30.10,North,-999,-999.0,-999.0,32,-99.99,,,-99.99,meteohub,2013-11-24 15:02:00,
2013-11-24 10:07:00,34.3,7.7,30.10,North,-999,-999.0,-999.0,32,-99.99,,,-99.99,meteohub,2013-11-24 15:07:00,
2013-11-24 10:12:00,34.5,7.7,30.10,North,-999,-999.0,-999.0,32,-99.99,,,-99.99,meteohub,2013-11-24 15:12:00,
2013-11-24 10:17:00,34.5,7.7,30.10,North,-999,-999.0,-999.0,32,-99.99,,,-99.99,meteohub,2013-11-24 15:17:00,
2013-11-24 10:22:00,34.7,7.9,30.10,North,-999,-999.0,-999.0,32,-99.99,,,-99.99,meteohub,2013-11-24 15:22:00,
2013-11-24 10:27:00,34.9,8.1,30.10,North,-999,-999.0,-999.0,32,-99.99,,,-99.99,meteohub,2013-11-24 15:27:00,
2013-11-24 10:32:00,35.2,8.4,30.10,North,-999,-999.0,-999.0,32,-99.99,,,-99.99,meteohub,2013-11-24 15:32:00,
2013-11-24 10:37:00,35.4,7.9,30.13,North,-999,-999.0,-999.0,31,-99.99,,,-99.99,meteohub,2013-11-24 15:37:00,
2013-11-24 10:42:00,36.0,8.4,30.13,North,-999,-999.0,-999.0,31,-99.99,,,-99.99,meteohub,2013-11-24 15:42:00,
2013-11-24 10:47:00,35.4,7.9,30.13,North,-999,-999.0,-999.0,31,-99.99,,,-99.99,meteohub,2013-11-24 15:47:00,
2013-11-24 10:52:00,35.4,7.9,30.10,North,-999,-999.0,-999.0,31,-99.99,,,-99.99,meteohub,2013-11-24 15:52:00,
2013-11-24 10:57:00,35.4,7.9,30.10,North,-999,-999.0,-999.0,31,-99.99,,,-99.99,meteohub,2013-11-24 15:57:00,
2013-11-24 11:02:00,35.2,7.7,30.10,North,-999,-999.0,-999.0,31,-99.99,,,-99.99,meteohub,2013-11-24 16:02:00,
2013-11-24 11:07:00,35.6,8.1,30.10,North,-999,-999.0,-999.0,31,-99.99,,,-99.99,meteohub,2013-11-24 16:07:00,
2013-11-24 11:12:00,36.0,8.4,30.10,North,-999,-999.0,-999.0,31,-99.99,,,-99.99,meteohub,2013-11-24 16:12:00,
2013-11-24 11:17:00,36.3,8.6,30.10,North,-999,-999.0,-999.0,31,-99.99,,,-99.99,meteohub,2013-11-24 16:17:00,
2013-11-24 11:22:00,36.5,8.8,30.10,North,-999,-999.0,-999.0,31,-99.99,,,-99.99,meteohub,2013-11-24 16:22:00,
2013-11-24 11:27:00,36.3,8.6,30.10,North,-999,-999.0,-999.0,31,-99.99,,,-99.99,meteohub,2013-11-24 16:27:00,
2013-11-24 11:32:00,36.1,7.7,30.10,North,-999,-999.0,-999.0,30,-99.99,,,-99.99,meteohub,2013-11-24 16:32:00,
2013-11-24 11:37:00,36.1,7.7,30.10,North,-999,-999.0,-999.0,30,-99.99,,,-99.99,meteohub,2013-11-24 16:37:00,
2013-11-24 11:42:00,36.3,7.9,30.10,North,-999,-999.0,-999.0,30,-99.99,,,-99.99,meteohub,2013-11-24 16:42:00,
2013-11-24 11:47:00,37.0,8.6,30.10,North,-999,-999.0,-999.0,30,-99.99,,,-99.99,meteohub,2013-11-24 16:47:00,
2013-11-24 11:52:00,37.9,9.3,30.10,North,-999,-999.0,-999.0,30,-99.99,,,-99.99,meteohub,2013-11-24 16:52:00,
2013-11-24 11:57:00,38.7,10.0,30.10,North,-999,-999.0,-999.0,30,-99.99,,,-99.99,meteohub,2013-11-24 16:57:00,
2013-11-24 12:02:00,38.8,10.2,30.10,North,-999,-999.0,-999.0,30,-99.99,,,-99.99,meteohub,2013-11-24 17:02:00,
2013-11-24 12:07:00,39.4,9.9,30.10,North,-999,-999.0,-999.0,29,-99.99,,,-99.99,meteohub,2013-11-24 17:07:00,
2013-11-24 12:12:00,39.0,10.2,30.10,North,-999,-999.0,-999.0,30,-99.99,,,-99.99,meteohub,2013-11-24 17:12:00,
2013-11-24 12:17:00,38.7,9.1,30.10,North,-999,-999.0,-999.0,29,-99.99,,,-99.99,meteohub,2013-11-24 17:17:00,
2013-11-24 12:22:00,38.8,9.3,30.07,North,-999,-999.0,-999.0,29,-99.99,,,-99.99,meteohub,2013-11-24 17:22:00,
2013-11-24 12:27:00,38.8,9.3,30.07,North,-999,-999.0,-999.0,29,-99.99,,,-99.99,meteohub,2013-11-24 17:27:00,
2013-11-24 12:32:00,38.7,9.1,30.07,North,-999,-999.0,-999.0,29,-99.99,,,-99.99,meteohub,2013-11-24 17:32:00,
2013-11-24 12:37:00,38.1,8.8,30.07,North,-999,-999.0,-999.0,29,-99.99,,,-99.99,meteohub,2013-11-24 17:37:00,
2013-11-24 12:42:00,38.5,9.1,30.07,North,-999,-999.0,-999.0,29,-99.99,,,-99.99,meteohub,2013-11-24 17:42:00,
2013-11-24 12:47:00,39.2,9.7,30.07,North,-999,-999.0,-999.0,29,-99.99,,,-99.99,meteohub,2013-11-24 17:47:00,
2013-11-24 12:52:00,38.8,9.3,30.07,North,-999,-999.0,-999.0,29,-99.99,,,-99.99,meteohub,2013-11-24 17:52:00,
2013-11-24 12:57:00,38.8,9.3,30.07,North,-999,-999.0,-999.0,29,-99.99,,,-99.99,meteohub,2013-11-24 17:57:00,
2013-11-24 13:02:00,38.7,9.1,30.07,North,-999,-999.0,-999.0,29,-99.99,,,-99.99,meteohub,2013-11-24 18:02:00,
2013-11-24 13:07:00,38.7,9.1,30.07,North,-999,-999.0,-999.0,29,-99.99,,,-99.99,meteohub,2013-11-24 18:07:00,
2013-11-24 13:12:00,39.0,9.5,30.07,North,-999,-999.0,-999.0,29,-99.99,,,-99.99,meteohub,2013-11-24 18:12:00,
2013-11-24 13:17:00,38.7,9.1,30.07,North,-999,-999.0,-999.0,29,-99.99,,,-99.99,meteohub,2013-11-24 18:17:00,
2013-11-24 13:22:00,39.2,9.7,30.07,North,-999,-999.0,-999.0,29,-99.99,,,-99.99,meteohub,2013-11-24 18:22:00,
2013-11-24 13:27:00,38.8,9.3,30.07,North,-999,-999.0,-999.0,29,-99.99,,,-99.99,meteohub,2013-11-24 18:27:00,
2013-11-24 13:32:00,38.7,9.1,30.07,North,-999,-999.0,-999.0,29,-99.99,,,-99.99,meteohub,2013-11-24 18:32:00,
2013-11-24 13:37:00,38.5,9.1,30.07,North,-999,-999.0,-999.0,29,-99.99,,,-99.99,meteohub,2013-11-24 18:37:00,
2013-11-24 13:42:00,38.7,10.0,30.07,North,-999,-999.0,-999.0,30,-99.99,,,-99.99,meteohub,2013-11-24 18:42:00,
2013-11-24 13:47:00,38.8,10.2,30.07,North,-999,-999.0,-999.0,30,-99.99,,,-99.99,meteohub,2013-11-24 18:47:00,
2013-11-24 13:52:00,38.8,10.2,30.04,North,-999,-999.0,-999.0,30,-99.99,,,-99.99,meteohub,2013-11-24 18:52:00,
2013-11-24 13:57:00,38.5,9.1,30.04,North,-999,-999.0,-999.0,29,-99.99,,,-99.99,meteohub,2013-11-24 18:57:00,
2013-11-24 14:02:00,38.5,9.1,30.04,North,-999,-999.0,-999.0,29,-99.99,,,-99.99,meteohub,2013-11-24 19:02:00,
2013-11-24 14:07:00,38.3,9.7,30.07,North,-999,-999.0,-999.0,30,-99.99,,,-99.99,meteohub,2013-11-24 19:07:00,
2013-11-24 14:12:00,38.1,9.5,30.07,North,-999,-999.0,-999.0,30,-99.99,,,-99.99,meteohub,2013-11-24 19:12:00,
2013-11-24 14:17:00,37.8,8.4,30.07,North,-999,-999.0,-999.0,29,-99.99,,,-99.99,meteohub,2013-11-24 19:17:00,
2013-11-24 14:22:00,37.9,8.6,30.04,North,-999,-999.0,-999.0,29,-99.99,,,-99.99,meteohub,2013-11-24 19:22:00,
2013-11-24 14:27:00,37.6,8.2,30.04,North,-999,-999.0,-999.0,29,-99.99,,,-99.99,meteohub,2013-11-24 19:27:00,
2013-11-24 14:32:00,37.9,8.6,30.04,North,-999,-999.0,-999.0,29,-99.99,,,-99.99,meteohub,2013-11-24 19:32:00,
2013-11-24 14:37:00,37.6,8.2,30.04,North,-999,-999.0,-999.0,29,-99.99,,,-99.99,meteohub,2013-11-24 19:37:00,
2013-11-24 14:42:00,37.8,8.4,30.04,North,-999,-999.0,-999.0,29,-99.99,,,-99.99,meteohub,2013-11-24 19:42:00,
2013-11-24 14:47:00,37.9,8.6,30.04,North,-999,-999.0,-999.0,29,-99.99,,,-99.99,meteohub,2013-11-24 19:47:00,
2013-11-24 14:52:00,37.8,8.4,30.04,North,-999,-999.0,-999.0,29,-99.99,,,-99.99,meteohub,2013-11-24 19:52:00,
2013-11-24 14:57:00,37.9,8.6,30.04,North,-999,-999.0,-999.0,29,-99.99,,,-99.99,meteohub,2013-11-24 19:57:00,
2013-11-24 15:02:00,37.6,8.2,30.04,North,-999,-999.0,-999.0,29,-99.99,,,-99.99,meteohub,2013-11-24 20:02:00,
2013-11-24 15:07:00,37.6,8.2,30.07,North,-999,-999.0,-999.0,29,-99.99,,,-99.99,meteohub,2013-11-24 20:07:00,
2013-11-24 15:12:00,37.2,8.8,30.07,North,-999,-999.0,-999.0,30,-99.99,,,-99.99,meteohub,2013-11-24 20:12:00,
2013-11-24 15:17:00,37.2,8.8,30.07,North,-999,-999.0,-999.0,30,-99.99,,,-99.99,meteohub,2013-11-24 20:17:00,
2013-11-24 15:22:00,37.0,8.6,30.07,North,-999,-999.0,-999.0,30,-99.99,,,-99.99,meteohub,2013-11-24 20:22:00,
2013-11-24 15:27:00,37.0,8.6,30.07,North,-999,-999.0,-999.0,30,-99.99,,,-99.99,meteohub,2013-11-24 20:27:00,
2013-11-24 15:32:00,36.9,8.4,30.07,North,-999,-999.0,-999.0,30,-99.99,,,-99.99,meteohub,2013-11-24 20:32:00,
2013-11-24 15:37:00,36.9,8.4,30.07,North,-999,-999.0,-999.0,30,-99.99,,,-99.99,meteohub,2013-11-24 20:37:00,
2013-11-24 15:42:00,36.9,8.4,30.07,North,-999,-999.0,-999.0,30,-99.99,,,-99.99,meteohub,2013-11-24 20:42:00,
2013-11-24 15:47:00,36.7,8.2,30.07,North,-999,-999.0,-999.0,30,-99.99,,,-99.99,meteohub,2013-11-24 20:47:00,
2013-11-24 15:52:00,36.7,8.2,30.07,North,-999,-999.0,-999.0,30,-99.99,,,-99.99,meteohub,2013-11-24 20:52:00,
2013-11-24 15:57:00,36.3,7.9,30.07,North,-999,-999.0,-999.0,30,-99.99,,,-99.99,meteohub,2013-11-24 20:57:00,
2013-11-24 16:02:00,36.3,7.9,30.07,North,-999,-999.0,-999.0,30,-99.99,,,-99.99,meteohub,2013-11-24 21:02:00,
2013-11-24 16:07:00,36.1,7.7,30.07,North,-999,-999.0,-999.0,30,-99.99,,,-99.99,meteohub,2013-11-24 21:07:00,
2013-11-24 16:12:00,35.8,7.5,30.07,North,-999,-999.0,-999.0,30,-99.99,,,-99.99,meteohub,2013-11-24 21:12:00,
2013-11-24 16:17:00,35.8,7.5,30.07,North,-999,-999.0,-999.0,30,-99.99,,,-99.99,meteohub,2013-11-24 21:17:00,
2013-11-24 16:22:00,35.6,7.3,30.07,North,-999,-999.0,-999.0,30,-99.99,,,-99.99,meteohub,2013-11-24 21:22:00,
2013-11-24 16:27:00,35.4,7.2,30.07,North,-999,-999.0,-999.0,30,-99.99,,,-99.99,meteohub,2013-11-24 21:27:00,
2013-11-24 16:32:00,35.4,7.2,30.07,North,-999,-999.0,-999.0,30,-99.99,,,-99.99,meteohub,2013-11-24 21:32:00,
2013-11-24 16:37:00,35.1,6.8,30.07,North,-999,-999.0,-999.0,30,-99.99,,,-99.99,meteohub,2013-11-24 21:37:00,
2013-11-24 16:42:00,35.1,6.8,30.07,North,-999,-999.0,-999.0,30,-99.99,,,-99.99,meteohub,2013-11-24 21:42:00,
2013-11-24 16:47:00,34.9,6.6,30.07,North,-999,-999.0,-999.0,30,-99.99,,,-99.99,meteohub,2013-11-24 21:47:00,
2013-11-24 16:52:00,34.7,6.4,30.07,North,-999,-999.0,-999.0,30,-99.99,,,-99.99,meteohub,2013-11-24 21:52:00,
2013-11-24 16:57:00,34.5,6.4,30.07,North,-999,-999.0,-999.0,30,-99.99,,,-99.99,meteohub,2013-11-24 21:57:00,
2013-11-24 17:02:00,34.3,6.3,30.07,North,-999,-999.0,-999.0,30,-99.99,,,-99.99,meteohub,2013-11-24 22:02:00,
2013-11-24 17:07:00,34.3,6.3,30.07,North,-999,-999.0,-999.0,30,-99.99,,,-99.99,meteohub,2013-11-24 22:07:00,
2013-11-24 17:12:00,34.2,6.1,30.07,North,-999,-999.0,-999.0,30,-99.99,,,-99.99,meteohub,2013-11-24 22:12:00,
2013-11-24 17:17:00,34.0,5.9,30.07,North,-999,-999.0,-999.0,30,-99.99,,,-99.99,meteohub,2013-11-24 22:17:00,
2013-11-24 17:22:00,33.8,5.7,30.10,North,-999,-999.0,-999.0,30,-99.99,,,-99.99,meteohub,2013-11-24 22:22:00,
2013-11-24 17:27:00,33.8,5.7,30.10,North,-999,-999.0,-999.0,30,-99.99,,,-99.99,meteohub,2013-11-24 22:27:00,
2013-11-24 17:32:00,33.6,6.3,30.10,North,-999,-999.0,-999.0,31,-99.99,,,-99.99,meteohub,2013-11-24 22:32:00,
2013-11-24 17:37:00,33.4,6.1,30.07,North,-999,-999.0,-999.0,31,-99.99,,,-99.99,meteohub,2013-11-24 22:37:00,
2013-11-24 17:42:00,33.1,5.9,30.07,North,-999,-999.0,-999.0,31,-99.99,,,-99.99,meteohub,2013-11-24 22:42:00,
2013-11-24 17:47:00,33.1,5.9,30.07,North,-999,-999.0,-999.0,31,-99.99,,,-99.99,meteohub,2013-11-24 22:47:00,
2013-11-24 17:52:00,32.7,5.5,30.10,North,-999,-999.0,-999.0,31,-99.99,,,-99.99,meteohub,2013-11-24 22:52:00,
2013-11-24 17:57:00,32.5,5.4,30.10,North,-999,-999.0,-999.0,31,-99.99,,,-99.99,meteohub,2013-11-24 22:57:00,
2013-11-24 18:02:00,32.5,5.4,30.10,North,-999,-999.0,-999.0,31,-99.99,,,-99.99,meteohub,2013-11-24 23:02:00,
2013-11-24 18:07:00,32.5,5.4,30.10,North,-999,-999.0,-999.0,31,-99.99,,,-99.99,meteohub,2013-11-24 23:07:00,
2013-11-24 18:12:00,32.2,5.0,30.10,North,-999,-999.0,-999.0,31,-99.99,,,-99.99,meteohub,2013-11-24 23:12:00,
2013-11-24 18:17:00,32.2,5.0,30.10,North,-999,-999.0,-999.0,31,-99.99,,,-99.99,meteohub,2013-11-24 23:17:00,
2013-11-24 18:22:00,32.0,4.8,30.10,North,-999,-999.0,-999.0,31,-99.99,,,-99.99,meteohub,2013-11-24 23:22:00,
2013-11-24 18:27:00,31.8,4.6,30.10,North,-999,-999.0,-999.0,31,-99.99,,,-99.99,meteohub,2013-11-24 23:27:00,
2013-11-24 18:32:00,31.6,4.5,30.10,North,-999,-999.0,-999.0,31,-99.99,,,-99.99,meteohub,2013-11-24 23:32:00,
2013-11-24 18:37:00,31.5,4.3,30.10,North,-999,-999.0,-999.0,31,-99.99,,,-99.99,meteohub,2013-11-24 23:37:00,
2013-11-24 18:42:00,31.1,4.1,30.10,North,-999,-999.0,-999.0,31,-99.99,,,-99.99,meteohub,2013-11-24 23:42:00,
2013-11-24 18:47:00,30.9,3.9,30.10,North,-999,-999.0,-999.0,31,-99.99,,,-99.99,meteohub,2013-11-24 23:47:00,
2013-11-24 18:52:00,30.7,3.7,30.10,North,-999,-999.0,-999.0,31,-99.99,,,-99.99,meteohub,2013-11-24 23:52:00,
2013-11-24 18:57:00,30.6,3.6,30.10,North,-999,-999.0,-999.0,31,-99.99,,,-99.99,meteohub,2013-11-24 23:57:00,
2013-11-24 19:02:00,30.2,3.9,30.10,North,-999,-999.0,-999.0,32,-99.99,,,-99.99,meteohub,2013-11-25 00:02:00,
2013-11-24 19:07:00,29.7,3.4,30.13,North,-999,-999.0,-999.0,32,-99.99,,,-99.99,meteohub,2013-11-25 00:07:00,
2013-11-24 19:12:00,29.5,3.4,30.13,North,-999,-999.0,-999.0,32,-99.99,,,-99.99,meteohub,2013-11-25 00:12:00,
2013-11-24 19:17:00,29.5,3.4,30.13,North,-999,-999.0,-999.0,32,-99.99,,,-99.99,meteohub,2013-11-25 00:17:00,
2013-11-24 19:22:00,29.5,3.4,30.13,North,-999,-999.0,-999.0,32,-99.99,,,-99.99,meteohub,2013-11-25 00:22:00,
2013-11-24 19:27:00,29.3,3.2,30.13,North,-999,-999.0,-999.0,32,-99.99,,,-99.99,meteohub,2013-11-25 00:27:00,
2013-11-24 19:32:00,29.1,3.0,30.13,North,-999,-999.0,-999.0,32,-99.99,,,-99.99,meteohub,2013-11-25 00:32:00,
2013-11-24 19:37:00,28.8,2.7,30.13,North,-999,-999.0,-999.0,32,-99.99,,,-99.99,meteohub,2013-11-25 00:37:00,
2013-11-24 19:42:00,28.6,2.5,30.13,North,-999,-999.0,-999.0,32,-99.99,,,-99.99,meteohub,2013-11-25 00:42:00,
2013-11-24 19:47:00,28.6,2.5,30.13,North,-999,-999.0,-999.0,32,-99.99,,,-99.99,meteohub,2013-11-25 00:47:00,
2013-11-24 19:52:00,28.6,3.2,30.13,North,-999,-999.0,-999.0,33,-99.99,,,-99.99,meteohub,2013-11-25 00:52:00,
2013-11-24 19:57:00,28.6,3.2,30.13,North,-999,-999.0,-999.0,33,-99.99,,,-99.99,meteohub,2013-11-25 00:57:00,
2013-11-24 20:02:00,28.4,3.0,30.13,North,-999,-999.0,-999.0,33,-99.99,,,-99.99,meteohub,2013-11-25 01:02:00,
2013-11-24 20:07:00,27.9,2.5,30.13,North,-999,-999.0,-999.0,33,-99.99,,,-99.99,meteohub,2013-11-25 01:07:00,
2013-11-24 20:12:00,27.9,3.2,30.13,North,-999,-999.0,-999.0,34,-99.99,,,-99.99,meteohub,2013-11-25 01:12:00,
2013-11-24 20:17:00,27.9,3.2,30.13,North,-999,-999.0,-999.0,34,-99.99,,,-99.99,meteohub,2013-11-25 01:17:00,
2013-11-24 20:22:00,27.9,3.2,30.13,North,-999,-999.0,-999.0,34,-99.99,,,-99.99,meteohub,2013-11-25 01:22:00,
2013-11-24 20:27:00,27.9,3.2,30.13,North,-999,-999.0,-999.0,34,-99.99,,,-99.99,meteohub,2013-11-25 01:27:00,
2013-11-24 20:32:00,27.7,3.6,30.13,North,-999,-999.0,-999.0,35,-99.99,,,-99.99,meteohub,2013-11-25 01:32:00,
2013-11-24 20:37:00,27.5,3.6,30.13,North,-999,-999.0,-999.0,35,-99.99,,,-99.99,meteohub,2013-11-25 01:37:00,
2013-11-24 20:42:00,27.5,3.6,30.13,North,-999,-999.0,-999.0,35,-99.99,,,-99.99,meteohub,2013-11-25 01:42:00,
2013-11-24 20:47:00,27.7,3.6,30.13,North,-999,-999.0,-999.0,35,-99.99,,,-99.99,meteohub,2013-11-25 01:47:00,
2013-11-24 20:52:00,27.3,3.9,30.13,North,-999,-999.0,-999.0,36,-99.99,,,-99.99,meteohub,2013-11-25 01:52:00,
2013-11-24 20:57:00,27.1,3.7,30.13,North,-999,-999.0,-999.0,36,-99.99,,,-99.99,meteohub,2013-11-25 01:57:00,
2013-11-24 21:02:00,27.3,3.9,30.13,North,-999,-999.0,-999.0,36,-99.99,,,-99.99,meteohub,2013-11-25 02:02:00,
2013-11-24 21:07:00,27.3,3.9,30.13,North,-999,-999.0,-999.0,36,-99.99,,,-99.99,meteohub,2013-11-25 02:07:00,
2013-11-24 21:12:00,27.3,4.5,30.13,North,-999,-999.0,-999.0,37,-99.99,,,-99.99,meteohub,2013-11-25 02:12:00,
2013-11-24 21:17:00,27.0,4.8,30.13,North,-999,-999.0,-999.0,38,-99.99,,,-99.99,meteohub,2013-11-25 02:17:00,
2013-11-24 21:22:00,27.0,4.3,30.16,North,-999,-999.0,-999.0,37,-99.99,,,-99.99,meteohub,2013-11-25 02:22:00,
2013-11-24 21:27:00,27.1,5.0,30.16,North,-999,-999.0,-999.0,38,-99.99,,,-99.99,meteohub,2013-11-25 02:27:00,
2013-11-24 21:32:00,27.1,5.0,30.16,North,-999,-999.0,-999.0,38,-99.99,,,-99.99,meteohub,2013-11-25 02:32:00,
2013-11-24 21:37:00,27.0,5.4,30.16,North,-999,-999.0,-999.0,39,-99.99,,,-99.99,meteohub,2013-11-25 02:37:00,
2013-11-24 21:42:00,26.8,5.2,30.16,North,-999,-999.0,-999.0,39,-99.99,,,-99.99,meteohub,2013-11-25 02:42:00,
2013-11-24 21:47:00,26.8,5.2,30.16,North,-999,-999.0,-999.0,39,-99.99,,,-99.99,meteohub,2013-11-25 02:47:00,
2013-11-24 21:52:00,27.0,5.4,30.16,North,-999,-999.0,-999.0,39,-99.99,,,-99.99,meteohub,2013-11-25 02:52:00,
2013-11-24 21:57:00,26.8,5.7,30.16,North,-999,-999.0,-999.0,40,-99.99,,,-99.99,meteohub,2013-11-25 02:57:00,
2013-11-24 22:02:00,26.6,6.1,30.16,North,-999,-999.0,-999.0,41,-99.99,,,-99.99,meteohub,2013-11-25 03:02:00,
2013-11-24 22:07:00,26.8,5.7,30.16,North,-999,-999.0,-999.0,40,-99.99,,,-99.99,meteohub,2013-11-25 03:07:00,
2013-11-24 22:12:00,26.6,6.1,30.16,North,-999,-999.0,-999.0,41,-99.99,,,-99.99,meteohub,2013-11-25 03:12:00,
2013-11-24 22:17:00,26.6,6.1,30.16,North,-999,-999.0,-999.0,41,-99.99,,,-99.99,meteohub,2013-11-25 03:17:00,
2013-11-24 22:22:00,26.6,6.1,30.16,North,-999,-999.0,-999.0,41,-99.99,,,-99.99,meteohub,2013-11-25 03:22:00,
2013-11-24 22:27:00,26.4,5.9,30.16,North,-999,-999.0,-999.0,41,-99.99,,,-99.99,meteohub,2013-11-25 03:27:00,
2013-11-24 22:32:00,26.2,5.7,30.16,North,-999,-999.0,-999.0,41,-99.99,,,-99.99,meteohub,2013-11-25 03:32:00,
2013-11-24 22:37:00,26.4,6.4,30.16,North,-999,-999.0,-999.0,42,-99.99,,,-99.99,meteohub,2013-11-25 03:37:00,
2013-11-24 22:42:00,26.2,6.3,30.16,North,-999,-999.0,-999.0,42,-99.99,,,-99.99,meteohub,2013-11-25 03:42:00,
2013-11-24 22:47:00,26.1,6.1,30.16,North,-999,-999.0,-999.0,42,-99.99,,,-99.99,meteohub,2013-11-25 03:47:00,
2013-11-24 22:52:00,26.1,6.1,30.19,North,-999,-999.0,-999.0,42,-99.99,,,-99.99,meteohub,2013-11-25 03:52:00,
2013-11-24 22:57:00,25.9,5.9,30.19,North,-999,-999.0,-999.0,42,-99.99,,,-99.99,meteohub,2013-11-25 03:57:00,
2013-11-24 23:02:00,25.9,5.9,30.19,North,-999,-999.0,-999.0,42,-99.99,,,-99.99,meteohub,2013-11-25 04:02:00,
2013-11-24 23:07:00,25.9,5.9,30.16,North,-999,-999.0,-999.0,42,-99.99,,,-99.99,meteohub,2013-11-25 04:07:00,
2013-11-24 23:12:00,25.7,5.9,30.16,North,-999,-999.0,-999.0,42,-99.99,,,-99.99,meteohub,2013-11-25 04:12:00,
2013-11-24 23:17:00,25.7,5.9,30.16,North,-999,-999.0,-999.0,42,-99.99,,,-99.99,meteohub,2013-11-25 04:17:00,
2013-11-24 23:22:00,25.7,5.9,30.19,North,-999,-999.0,-999.0,42,-99.99,,,-99.99,meteohub,2013-11-25 04:22:00,
2013-11-24 23:27:00,25.5,6.1,30.19,North,-999,-999.0,-999.0,43,-99.99,,,-99.99,meteohub,2013-11-25 04:27:00,
2013-11-24 23:32:00,25.5,6.1,30.19,North,-999,-999.0,-999.0,43,-99.99,,,-99.99,meteohub,2013-11-25 04:32:00,
2013-11-24 23:37:00,25.3,6.1,30.19,North,-999,-999.0,-999.0,43,-99.99,,,-99.99,meteohub,2013-11-25 04:37:00,
2013-11-24 23:42:00,25.3,6.1,30.19,North,-999,-999.0,-999.0,43,-99.99,,,-99.99,meteohub,2013-11-25 04:42:00,
2013-11-24 23:47:00,25.3,6.1,30.19,North,-999,-999.0,-999.0,43,-99.99,,,-99.99,meteohub,2013-11-25 04:47:00,
2013-11-24 23:52:00,25.3,6.1,30.16,North,-999,-999.0,-999.0,43,-99.99,,,-99.99,meteohub,2013-11-25 04:52:00,
2013-11-24 23:57:00,25.2,5.9,30.16,North,-999,-999.0,-999.0,43,-99.99,,,-99.99,meteohub,2013-11-25 04:57:00,